Regional Weather Roundup
Issued by NWS

Home | Current Version | Previous Version | Text Only | Print | Product List | Glossary Off
Versions: 1 2 3 4 5 6 7 8 9 10 11 12 13 14 15 16 17 18 19 20 21 22 23 24 25 26 27 28 29 30 31 32 33 34 35 36 37 38 39 40 41 42 43 44 45 46 47 48 49 50

606
ASUS43 KFSD 031210
RWRSD

WEATHER ROUNDUP FOR SOUTH DAKOTA
NATIONAL WEATHER SERVICE SIOUX FALLS SD
700 AM CDT TUE MAY 03 2016

NOTE: "FAIR" INDICATES FEW OR NO CLOUDS BELOW 12,000 FEET WITH NO
SIGNIFICANT WEATHER AND/OR OBSTRUCTIONS TO VISIBILITY.


SDZ001>005-009-010-012>017-031300-
NORTHWEST AND NORTH CENTRAL SOUTH DAKOTA

CITY           SKY/WX    TMP DP  RH WIND       PRES   REMARKS
BUFFALO          N/A     44  32  62 CALM      30.00S
FAITH            N/A     41  35  79 NW8       30.04S
MOBRIDGE       SNOW      38  37  97 CALM      29.99R VSB 1/4
$$

SDZ012>016-024>037-041>051-057-063-072>074-031300-
SOUTHWEST AND SOUTH CENTRAL SOUTH DAKOTA

CITY           SKY/WX    TMP DP  RH WIND       PRES   REMARKS
RAPID CTY ARPT CLEAR     41  32  70 NW7       30.08R
PIERRE         CLEAR     38  36  92 W5        30.03R
CUSTER         CLOUDY    39  26  59 VRB3      30.12R
PHILIP         CLEAR     34  34 100 W5        30.06S WCI  30
PINE RIDGE     FOG       29  27  92 CALM      30.09S VSB 1
WINNER         FAIR      40  36  86 SW7       30.06R
$$

SDZ004>011-016>023-039-040-031300-
NORTHEAST SOUTH DAKOTA

CITY           SKY/WX    TMP DP  RH WIND       PRES   REMARKS
ABERDEEN       CLEAR     35  32  88 SW3       30.00R
WATERTOWN      CLEAR     39  35  86 W5        30.00R
BROOKINGS      CLEAR     37  35  92 CALM      30.01R
SISSETON         N/A     47  39  74 W3        29.97S
$$

SDZ017-020-022-023-036>040-048>070-031300-
SOUTHEAST SOUTH DAKOTA

CITY           SKY/WX    TMP DP  RH WIND       PRES   REMARKS
SIOUX FALLS    PTCLDY    36  35  96 CALM      30.02S
HURON          CLEAR     38  37  97 CALM      30.02R
CHAMBERLAIN    CLEAR     40  40 100 W6        30.05S
MITCHELL       CLEAR     44  42  93 SW7       30.03S
YANKTON        CLEAR     45  39  81 NW3       30.04R
$$

ABBREVIATIONS USED IN REMARKS
   TC - TEMPERATURE IN CELSIUS
  WCI - WIND CHILL INDEX
   HX - HEAT INDEX
  VSB - VISIBILITY





USA.gov is the U.S. government's official web portal to all federal, state and local government web resources and services.